Hourly Data Report for October 29, 2013

All times are specified in Local Standard Time (LST). Add 1 hour to adjust for Daylight Saving Time where and when it is observed.

IQALUIT CLIMATE
NUNAVUT

63°44'50.000" N
68°32'40.000" W
33.50 m
2402592
71321
XFB

Download Data

Hourly Data (October 2013)
Hourly Data Report for October 29, 2013
Temp Definition
°C
Dew Point Temp Definition
°C
Rel Hum Definition
%
Wind Dir Definition
10's deg

Wind Spd Definition
km/h
Visibility Definition
km
Stn Press Definition
kPa
Hmdx Definition


Wind Chill Definition


Weather Definition


TIME
00:00 -6.6 -8.1 89 33 20   99.61   -14 LegendNANA
01:00 -7.2 -8.6 90 33 20   99.64   -14 LegendNANA
02:00 -7.2 -8.6 90 34 26   99.67   -15 LegendNANA
03:00 -7.9 -9.5 88 33 24   99.69   -16 LegendNANA
04:00 -8.6 -10.4 87 33 24   99.73   -17 LegendNANA
05:00 -8.9 -10.4 89 32 22   99.76   -17 LegendNANA
06:00 -8.2 -9.6 90 32 22   99.80   -16 LegendNANA
07:00 -8.5 -9.8 90 32 26   99.82   -17 LegendNANA
08:00 -8.6 -9.8 91 33 24   99.83   -17 LegendNANA
09:00 -8.7 -10.1 90 32 24   99.83   -17 LegendNANA
10:00 -8.7 -10.4 87 32 26   99.82   -17 LegendNANA
11:00 -8.4 -9.9 89 33 30   99.81   -17 LegendNANA
12:00 -8.1 -9.7 88 34 32   99.80   -17 LegendNANA
13:00 -8.5 -9.9 90 33 33   99.83   -18 LegendNANA
14:00 -8.6 -10.1 89 32 39   99.86   -19 LegendNANA
15:00 -8.6 -9.6 92 32 35   99.88   -18 LegendNANA
16:00 -8.7 -10.2 89 33 39   99.88   -19 LegendNANA
17:00 -8.9 -10.2 90 33 39   99.90   -19 LegendNANA
18:00 -9.0 -10.7 87 34 32   99.94   -18 LegendNANA
19:00 -9.0 -10.7 87 33 32   99.92   -18 LegendNANA
20:00 -9.2 -10.7 89 33 30   99.95   -18 LegendNANA
21:00 -8.8 -10.3 89 34 22   99.95   -17 LegendNANA
22:00 -9.0 -10.3 90 33 20   99.96   -17 LegendNANA
23:00 -8.9 -10.4 89 33 17   99.96   -16 LegendNANA

Notes on Data Quality.

Legend

  • E = Estimated
  • M = Missing
  • NA = Not Available
  • ‡ = Partner data that is not subject to review by the National Climate Archives
Date modified: